SL-12 R/B(2), 20623

Orbit data source: Space-Track

SL-12 R/B(2), 20623 is space debris in MEO originally from a launch on Sat, 19 May 1990 UTC launched from the Tyuratam Missile And Space Complex (TTMTR). Debris objects in space refer to the collection of defunct objects orbiting the Earth. Examples of debris include non-operational satellites, rocket bodies, and fragments generated from explosions, collisions, or faulty payload assembly.

Loading next visibility...
Identifier
20623, 1990-045E
Orbit
MEO
Country
Flag of CISCIS
Related business
Manufacturer
NPO Energiya
Mission
Spacecraft
Bus & Motor
BLOK DM, Unknown motor
Mass
2,440 kg wet, 2,440 kg dry
Launch date (UTC)
1990-05-19 (36 years ago)
Launch vehicle
Unknown
Launch site
Tyuratam Missile And Space Complex (TTMTR)
Object type
Payload
Rocket body
Debris
Shape & HBR
Cyl, 3.1 m
Radar Cross Section
23.597 m², Large (>1 m²)

Expand to show TLE details & history
Last TLE update: 4 days ago

TLE from 4 days ago
0 SL-12 R/B(2)
1 20623U 90045E   26169.38563186 -.00000052  00000-0  00000+0 0  9992
2 20623  64.6839 306.9894 0013663 345.6485  55.3012  2.13419147281362
Epoch: 2026-06-18T09:15Z
TLE epoch observation values (Epoch: 2026-06-18T09:15:18.592Z)
Latitude
36.50312°
Longitude
-78.03583°
Altitude
19,088.241 km
Speed
3.959 km/s
True Right ascension
21h 49m 41s
True Declination
36° 27' 26"
Sunlit
Object was in daylight at epoch
Visualization orbit readout
Latitude
Unknown
Longitude
Unknown
Altitude
Unknown
Speed
Unknown
Apparent Right ascension
Unknown
Apparent Declination
Unknown
Sunlit
N/A
Visualization observer readout
Local Sidereal Time
00:27:50
Azimuth
Unknown
Elevation
Unknown
Doppler factor
Unknown
Orbital elements
Apogee altitude
19,139.053 km
Perigee altitude
19,069.42 km
Semi-major axis
25,482.373 km
Eccentricity
0.00137
Inclination
64.6839°
RAAN
306.9894°
Arg. of periapsis
345.6485°
True anomaly
55.43005°
Mean anomaly
55.3012°
Eccentric anomaly
55.36561°
Mean motion
0.53356 °/min
Orbital period
674.71 mins
BSTAR
0
Loading maneuver chart data...
Computing Atmospheric mass density...
Loading historical data...
Loading historical data...
Loading historical data...
Loading historical data...
Loading historical data...
Loading historical data...
Loading historical data...

Documentation

Showing up to 5 results
|